This is the latest recevied weather packets stored in our database for station/object N9EA. If no packets are shown the sender has not sent any weather packets the latest 10 day(s).
| Time | Temp. | Humidity | Pressure | Rain* | Wind** | Luminosity | Snow |
|---|---|---|---|---|---|---|---|
| 1777507432 | 13.33° C | 39% | 1015.3 hPa | 0 mm | - | 44 W/m² | - |
| 1777507129 | 13.89° C | 37% | 1015.4 hPa | 0 mm | - | 41 W/m² | - |
| 1777506827 | 13.89° C | 37% | 1015.2 hPa | 0 mm | - | 37 W/m² | - |
| 1777506523 | 13.89° C | 36% | 1015.2 hPa | 0 mm | - | 37 W/m² | - |
| 1777506218 | 14.44° C | 35% | 1015.3 hPa | 0 mm | - | 70 W/m² | - |
| 1777505916 | 15° C | 37% | 1015.3 hPa | 0 mm | - | 47 W/m² | - |
| 1777505606 | 14.44° C | 36% | 1015.2 hPa | 0 mm | - | 109 W/m² | - |
| 1777505303 | 15° C | 36% | 1015.1 hPa | 0 mm | - | 121 W/m² | - |
| 1777504999 | 15° C | 37% | 1015.2 hPa | 0 mm | - | 148 W/m² | - |
| 1777504697 | 15° C | 37% | 1015.1 hPa | 0 mm | - | 140 W/m² | - |
| 1777504394 | 15° C | 39% | 1015.2 hPa | 0 mm | - | 152 W/m² | - |
| 1777504089 | 15.56° C | 36% | 1015.1 hPa | 0 mm | - | 197 W/m² | - |
| 1777503784 | 15.56° C | 33% | 1015.2 hPa | 0 mm | - | 177 W/m² | - |
| 1777503482 | 15° C | 36% | 1015.1 hPa | 0 mm | - | 184 W/m² | - |
| 1777503177 | 15° C | 37% | 1014.9 hPa | 0 mm | - | 234 W/m² | - |
| 1777502875 | 15° C | 40% | 1015 hPa | 0 mm | - | 156 W/m² | - |
| 1777502572 | 15.56° C | 36% | 1015.1 hPa | 0 mm | - | 244 W/m² | - |
| 1777502269 | 15.56° C | 36% | 1015.1 hPa | 0 mm | - | 276 W/m² | - |
| 1777501966 | 15.56° C | 35% | 1014.9 hPa | 0 mm | - | 282 W/m² | - |
| 1777501663 | 15.56° C | 37% | 1014.9 hPa | 0 mm | - | 131 W/m² | - |
| 1777501359 | 15° C | 36% | 1015 hPa | 0 mm | - | 90 W/m² | - |
| 1777501057 | 14.44° C | 36% | 1015.1 hPa | 0 mm | - | 92 W/m² | - |
| 1777500755 | 15° C | 36% | 1015.1 hPa | 0 mm | - | 88 W/m² | - |
| 1777500452 | 15.56° C | 36% | 1015.1 hPa | 0 mm | - | 88 W/m² | - |
| 1777500147 | 15° C | 37% | 1014.9 hPa | 0 mm | - | 122 W/m² | - |
* Rain latest hour (hover to see other rain measurements)
** Current wind speed in m/s (hover to see current wind gust speed)